EDT,Max TemperatureF,Mean TemperatureF,Min TemperatureF,Max Dew PointF,MeanDew PointF,Min DewpointF,Max Humidity, Mean Humidity, Min Humidity, Max Sea Level PressureIn, Mean Sea Level PressureIn, Min Sea Level PressureIn, Max VisibilityMiles, Mean VisibilityMiles, Min VisibilityMiles, Max Wind SpeedMPH, Mean Wind SpeedMPH, Max Gust SpeedMPH,PrecipitationIn, CloudCover, Events, WindDirDegrees
2012-10-1,68,60,53,54,51,48,82,66,59,29.94,29.88,29.84,10,10,10,21,12,31,0.00,0,,269
2012-10-2,69,64,60,63,60,55,94,84,60,30.07,30.05,30.02,10,9,6,6,1,,0.00,7,Rain,160
2012-10-3,69,68,66,68,66,64,100,94,88,30.11,30.08,30.06,8,5,0,4,0,,0.00,8,Fog,-1
2012-10-4,68,66,64,66,65,64,100,96,94,30.16,30.11,30.07,8,4,1,5,2,,0.00,8,,-1
2012-10-5,75,70,64,64,62,55,100,77,50,30.08,30.03,29.98,10,9,7,9,5,,0.00,1,,284
2012-10-6,71,70,68,66,66,64,94,85,83,29.90,29.84,29.79,10,9,7,23,14,33,0.00,2,,224
2012-10-7,57,54,50,48,46,43,88,76,59,30.11,30.08,30.04,10,10,10,7,1,,0.00,6,Rain,310
2012-10-8,53,50,46,48,45,43,93,77,67,30.31,30.27,30.21,10,10,10,7,3,,0.00,6,,3
2012-10-9,57,56,55,55,54,54,94,92,88,30.21,30.17,30.13,10,7,2,9,5,,0.00,7,,70
2012-10-10,68,64,59,63,60,57,100,90,77,29.99,29.88,29.80,10,7,2,12,5,,0.00,6,Rain,188
2012-10-11,57,54,50,41,39,39,71,58,51,30.18,30.16,30.14,10,10,10,16,13,24,0.00,0,,327
2012-10-12,59,54,50,46,42,34,76,65,50,30.21,30.13,30.09,10,10,10,14,12,24,0.00,4,,322
2012-10-13,50,48,46,34,29,25,62,46,40,30.53,30.47,30.42,10,10,10,12,7,,0.00,0,,277
2012-10-14,66,63,60,61,56,52,88,75,68,30.23,30.16,30.09,10,10,10,23,16,23,0.00,3,,229
2012-10-15,68,66,64,63,63,63,94,89,83,29.87,29.78,29.72,10,9,4,16,14,26,0.00,7,,209
2012-10-16,57,55,53,41,39,39,62,55,51,29.84,29.77,29.74,10,10,10,18,14,29,0.00,0,,324
2012-10-17,55,47,39,45,41,37,93,70,54,30.02,30.00,29.97,10,10,10,7,2,,0.00,2,,320
2012-10-18,62,52,41,54,51,39,94,77,68,30.10,30.08,30.05,10,10,10,9,4,,0.00,2,,170
2012-10-19,66,65,64,64,64,63,94,93,88,29.94,29.84,29.75,10,7,1,17,13,,0.00,8,Rain,151
2012-10-20,69,66,60,63,60,55,100,88,60,29.74,29.71,29.69,10,8,0,14,9,,0.00,3,Fog,229
2012-10-21,62,56,51,46,46,45,82,63,55,29.96,29.94,29.92,10,10,10,12,8,,0.00,0,,294
2012-10-22,64,60,55,46,46,45,72,58,52,30.06,30.02,29.99,10,10,10,17,12,,0.00,0,,300
2012-10-23,66,60,55,54,49,43,82,63,43,30.15,30.11,30.09,10,10,10,9,3,,0.00,3,,275
2012-10-24,57,56,55,54,52,50,94,87,82,30.18,30.16,30.14,10,10,10,12,4,,0.00,8,,63
2012-10-25,60,56,53,52,49,46,82,70,59,30.30,30.28,30.27,10,10,10,7,6,,0.00,5,,106
2012-10-26,64,62,55,55,53,48,88,73,56,30.25,30.20,30.15,10,10,10,9,6,,0.00,1,,153
2012-10-27,64,60,57,55,53,50,94,77,63,30.07,30.02,29.99,10,10,10,9,4,,0.00,3,,110
2012-10-28,59,58,57,54,54,54,88,85,82,29.90,29.83,29.75,10,10,8,26,18,38,0.00,8,,47
2012-10-29,,,,,,,,,,,,,,,,,,,,,,
2012-10-30,,,,,,,,,,,,,,,,,,,,,,
2012-10-31,51,50,50,46,45,43,87,80,71,29.59,29.57,29.56,10,10,10,14,7,24,0.00,6,,252